Regional Weather Roundup
Issued by NWS

Home | Current Version | Previous Version | Text Only | Print | Product List | Glossary On
Versions: 1 2 3 4 5 6 7 8 9 10 11 12 13 14 15 16 17 18 19 20 21 22 23 24 25 26 27 28 29 30 31 32 33 34 35 36 37 38 39 40 41 42 43 44 45 46 47 48 49 50
000
ASUS46 KPQR 251910
RWROR

OREGON REGIONAL WEATHER ROUNDUP
NATIONAL WEATHER SERVICE PORTLAND OR
1200 PM PDT FRI JUL 25 2014

NOTE: "FAIR" INDICATES FEW OR NO CLOUDS BELOW 12,000 FEET WITH
NO SIGNIFICANT WEATHER AND/OR OBSTRUCTIONS TO VISIBILITY.

ORZ001>013-252000-
NORTHWEST OREGON


CITY           SKY/WX    TMP DP  RH WIND       PRES   REMARKS
ASTORIA        PTSUNNY   64  54  69 NW8       30.14S
NEWPORT        SUNNY     61  54  77 NW14      30.16F
PORTLAND       MOSUNNY   66  53  63 NW7       30.13F
VANCOUVER WA   MOSUNNY   66  51  58 MISG      30.13S
SCAPPOOSE      SUNNY     68  51  54 NE7       30.12F
HILLSBORO      MOSUNNY   68  52  56 NE5       30.12F
AURORA         SUNNY     68  51  54 NW7       30.13S
MCMINNVILLE    SUNNY     70  49  47 N6        30.13S
SALEM          SUNNY     70  50  49 N10       30.11F
CORVALLIS      SUNNY     72  54  53 N5        30.12F
EUGENE         SUNNY     72  51  47 N10       30.11F
$$

ORZ021-028-252000-
SOUTHWEST OREGON


CITY           SKY/WX    TMP DP  RH WIND       PRES   REMARKS
NORTH BEND     SUNNY     66  55  68 N20       30.11S
BROOKINGS      CLEAR     76  58  53 SW3       29.98F
ROSEBURG       SUNNY     68  53  58 CALM      30.10F
SEXTON SUMMIT  SUNNY     66  50  56 CALM      30.13S
MEDFORD        SUNNY     75  49  39 N6        30.04F
$$

ORZ009-041-252000-
COLUMBIA GORGE


CITY           SKY/WX    TMP DP  RH WIND       PRES   REMARKS
TROUTDALE      MOSUNNY   66  53  63 VRB6      30.12S
THE DALLES     SUNNY     74  50  42 N6        30.06F
$$

ORZ029>031-042>050-061>064-252000-
EASTERN OREGON


CITY           SKY/WX    TMP DP  RH WIND       PRES   REMARKS
REDMOND        SUNNY     72  36  26 CALM      30.11F
BEND           CLEAR     70  34  26 CALM      30.13F
KLAMATH FALLS  SUNNY     76  37  24 VRB3      30.11F
LAKEVIEW       SUNNY     79  36  21 NW6       30.14F
HERMISTON      SUNNY     73  48  41 W6        30.07F
PENDLETON      SUNNY     70  43  37 VRB3      30.09F
JOHN DAY       CLEAR     74  26  16 W9        30.13F
MEACHAM        SUNNY     68  43  40 VRB3      30.14F
LA GRANDE      SUNNY     72  41  33 N7        30.09F
BAKER CITY     SUNNY     71  38  29 VRB3      30.12F
BURNS          SUNNY     74  27  17 CALM      30.13F
ROME             N/A     75  27  17 CALM      30.10F
ONTARIO        SUNNY     77  42  28 VRB3      30.07F
$$



USA.gov is the U.S. government's official web portal to all federal, state and local government web resources and services.